Volver al catálogo

THOR BURNER 2 R/B

ActivoSSO
NORAD 4954·ROCKET BODY·🇺🇸 United States

Lanzado Feb 17, 1971 desde Vandenberg Space Force Base

Loading…

Próximos Pases

TLE

Source: Space-Track
1 04954U 71012B   26229.35846796  .00000090  00000-0  41906-4 0  9995
2 04954  98.3207  81.5117 0037436  49.3836 311.0599 14.39790509904673

Sigue THOR BURNER 2 R/B en tiempo real con AllMySat

Download on the App Store